Temperature
7 7 7 7 7 8 7 7 7 7 7 7 7 7 7 6 6 6 6 5 5 5 5 5 5 5 5 5 5 5 4 4 4 4 4 4 4 4 4 4 4 4 4
6 7 7 7 7 7 7 7 7 7 7 7 7 6 6 6 6 6 6 5 5 5 5 5 5 5 5 5 5 4 4 4 4 4 4 4 4 4 4 4 4 4 4
6 6 6 6 6 6 6 6 6 6 6 6 6 6 6 6 6 6 5 5 5 5 5 5 5 5 5 5 4 4 4 4 4 3 3 3 3 3 3 4 4 4 4
5 5 5 6 6 6 6 6 6 6 6 6 6 6 5 5 5 5 5 5 5 5 4 4 4 4 4 4 4 4 4 3 3 3 3 3 3 3 3 3 3 4 4
5 5 5 5 5 5 5 5 5 5 5 5 5 5 5 5 5 5 5 5 4 4 4 4 4 4 4 4 4 4 3 3 3 3 3 3 3 3 3 3 3 3 3
4 4 5 5 5 5 5 5 5 5 5 5 5 5 5 5 5 5 5 4 4 4 4 4 4 4 3 3 3 3 3 3 3 3 3 3 3 3 3 3 3 3 3
4 4 4 4 4 4 4 4 4 4 4 4 4 4 4 4 4 4 4 4 4 4 4 4 3 3 3 3 3 3 3 3 3 3 2 2 2 2 2 2 2 2 2
3 4 4 4 4 4 4 4 4 4 4 4 4 4 4 4 4 4 4 4 4 4 4 3 3 3 3 3 3 3 3 3 2 2 2 2 2 2 2 2 2 2 2
3 3 3 4 4 4 4 4 4 3 4 4 4 4 4 4 4 4 3 4 3 3 3 3 3 3 3 3 3 3 3 2 2 2 2 2 2 2 2 2 2 2 2
3 3 3 3 3 3 3 3 3 3 3 3 3 3 3 3 3 3 3 3 3 3 3 3 3 3 3 2 2 2 2 2 2 2 2 2 2 2 2 1 1 1 1
2 2 2 3 3 3 3 3 3 3 3 3 3 3 3 3 3 3 3 3 3 3 3 2 2 2 2 2 2 2 2 2 2 2 1 1 1 1 1 1 1 1 0
2 2 2 2 2 2 2 2 2 2 2 2 2 2 2 2 2 3 3 3 2 2 2 2 2 2 2 2 2 2 1 1 1 1 1 1 1 1 1 1 1 0 0
2 2 2 2 2 2 2 2 2 2 2 2 2 2 2 2 2 2 2 2 2 2 2 2 2 1 1 1 1 1 1 1 1 1 1 0 0 0 1 1 0 0 0
1 1 1 1 1 1 1 2 2 1 1 1 1 1 2 2 2 2 2 2 2 2 2 1 1 1 1 1 1 1 1 0 0 0 0 0 0 0 0 0 0 0 -0
1 1 1 1 1 1 1 1 1 1 1 1 1 1 1 1 1 1 1 1 1 1 1 1 1 1 1 1 1 0 0 -0 -0 0 0 0 -0 -0 -0 -0 -0 -0 -1
-0 0 0 0 0 0 0 0 0 0 0 0 1 1 1 1 1 1 1 1 1 1 1 1 1 1 0 0 -0 -0 -0 -0 -0 -0 -0 -0 -0 -1 -1 -1 -1 -1 -1
-1 -1 -0 -0 -0 -0 -0 -0 0 0 0 -0 0 0 0 0 0 1 1 1 1 0 0 0 0 -0 -0 -0 -0 -0 -1 -1 -1 -1 -1 -1 -1 -1 -1 -1 -1 -1 -2
-1 -1 -1 -1 -1 -1 -1 -1 -1 -0 -0 -0 -0 -0 -0 -0 0 0 0 0 0 -0 -0 -0 -0 -0 -1 -1 -1 -1 -1 -1 -1 -1 -1 -1 -1 -1 -1 -2 -2 -2 -2
-2 -1 -1 -1 -1 -1 -1 -1 -1 -1 -1 -1 -1 -1 -1 -0 -0 -0 -0 -0 -0 -1 -1 -1 -1 -1 -1 -1 -1 -1 -1 -1 -1 -1 -1 -1 -2 -2 -2 -2 -2 -2 -3
-2 -2 -2 -2 -2 -2 -2 -1 -1 -1 -1 -1 -1 -1 -1 -1 -1 -1 -1 -1 -1 -1 -1 -1 -1 -1 -1 -1 -1 -1 -1 -1 -1 -2 -2 -2 -2 -2 -2 -2 -3 -3 -3
-2 -2 -2 -2 -2 -2 -2 -2 -2 -2 -2 -2 -2 -2 -2 -1 -1 -1 -1 -1 -1 -1 -1 -1 -2 -2 -2 -2 -2 -2 -2 -2 -2 -2 -2 -2 -2 -2 -3 -3 -3 -3 -3
-3 -3 -3 -3 -3 -3 -3 -2 -2 -2 -2 -2 -2 -2 -2 -2 -2 -1 -2 -2 -2 -2 -2 -2 -2 -2 -2 -2 -2 -2 -2 -2 -2 -2 -2 -2 -3 -3 -3 -3 -3 -4 -4
-3 -3 -3 -3 -3 -3 -3 -3 -3 -3 -3 -3 -2 -2 -2 -2 -2 -2 -2 -2 -2 -2 -2 -2 -2 -2 -2 -2 -2 -2 -2 -3 -3 -3 -3 -3 -3 -3 -3 -4 -4 -4 -4
-4 -4 -4 -4 -4 -4 -3 -3 -3 -3 -3 -3 -3 -3 -3 -3 -3 -3 -3 -2 -2 -2 -2 -2 -2 -2 -2 -2 -2 -3 -3 -3 -3 -3 -3 -3 -3 -4 -4 -4 -4 -4 -4
-4 -4 -4 -4 -4 -4 -4 -4 -4 -4 -3 -3 -3 -3 -3 -3 -3 -3 -3 -3 -3 -3 -3 -3 -3 -3 -3 -3 -3 -3 -3 -3 -3 -3 -3 -3 -4 -4 -4 -4 -4 -4 -4
-4 -4 -4 -4 -4 -4 -4 -4 -4 -4 -4 -4 -3 -3 -3 -3 -3 -3 -3 -3 -3 -3 -3 -3 -3 -3 -3 -3 -3 -3 -3 -3 -3 -3 -4 -4 -4 -4 -4 -4 -5 -5 -5
Wind_Speed
0 1 1 1 1 1 1 1 1 1 1 1 1 1 1 1 1 1 1 1 1 2 2 2 3 2 2 2 1 1 1 1 4 5 4 4 5 5 6 6 6 6 6
1 0 1 1 1 0 0 1 1 1 1 1 1 1 1 1 1 1 2 1 1 2 2 2 2 2 2 1 1 1 2 2 2 5 5 4 5 5 5 5 6 6 5
1 1 1 1 0 1 1 1 1 1 1 1 1 1 1 1 1 2 1 1 2 2 2 2 2 2 2 1 1 1 2 2 2 3 5 4 4 4 5 5 5 5 6
1 1 1 0 1 1 1 1 1 1 1 1 1 1 2 1 1 1 1 1 1 2 2 2 2 2 2 2 1 2 1 1 2 2 3 4 4 4 4 5 5 5 5
0 0 1 1 1 1 0 1 1 0 1 1 1 1 1 1 1 1 1 1 1 1 1 1 1 2 2 1 1 1 1 1 2 2 3 3 4 5 4 4 5 6 5
1 1 1 1 1 1 1 0 0 0 1 1 1 1 1 2 2 1 1 1 1 1 1 2 2 1 2 2 2 2 2 1 1 2 2 3 4 4 4 4 4 4 4
1 1 1 1 1 1 1 1 0 1 0 1 1 1 2 2 2 1 1 1 0 1 1 1 2 2 2 1 2 3 3 4 2 1 2 3 4 4 3 4 4 4 4
2 2 2 1 1 1 1 1 1 1 1 1 1 1 1 2 2 1 1 1 0 0 1 0 1 1 2 1 2 2 3 3 3 2 1 2 2 2 2 2 3 3 2
2 2 2 1 1 1 1 1 1 1 1 1 1 1 1 2 1 0 2 0 0 1 1 1 1 0 2 3 3 2 3 4 5 6 6 5 6 6 4 3 3 3 3
3 2 2 2 1 1 2 2 1 1 1 1 1 1 1 2 2 1 2 1 0 1 1 1 2 2 3 3 2 2 2 2 3 5 6 7 6 7 9 5 2 2 2
3 2 2 2 1 1 1 1 1 0 0 1 1 1 1 2 2 1 2 1 1 1 1 1 1 3 4 4 3 2 2 3 2 3 4 4 5 5 5 5 4 2 1
2 2 2 2 2 1 1 1 1 1 1 1 1 2 2 2 2 1 2 2 2 2 0 1 1 4 4 5 4 5 6 5 3 3 3 4 4 4 4 5 5 4 2
2 2 2 3 2 2 1 1 1 1 1 1 1 1 2 2 2 3 2 2 3 2 1 3 4 4 4 3 5 7 6 3 3 3 3 3 2 2 3 4 4 4 4
1 1 2 2 3 3 2 1 1 1 1 1 1 1 1 2 2 2 1 1 2 2 2 3 5 6 5 5 5 4 3 2 2 2 2 2 2 3 3 3 3 4 3
1 1 1 2 2 2 2 2 1 1 0 0 1 1 0 1 1 2 2 1 1 2 3 3 3 3 4 4 3 3 3 3 3 3 2 2 3 3 3 3 3 3 3
1 1 1 1 1 2 2 2 4 3 4 3 3 2 1 1 2 3 3 4 5 6 5 3 3 2 2 2 2 2 2 2 2 2 2 2 2 2 3 3 2 3 3
0 0 1 1 1 1 1 1 2 3 4 5 5 4 3 3 4 4 4 5 6 6 4 3 2 1 1 1 1 1 1 2 2 2 2 2 2 2 2 3 3 3 3
1 1 1 0 0 0 1 1 1 1 2 2 4 5 4 5 5 5 5 5 4 3 2 2 1 1 1 1 1 1 1 2 2 2 1 1 1 2 2 2 2 3 3
1 0 0 0 1 1 1 1 1 1 1 1 2 3 4 4 5 5 5 3 3 2 2 2 1 1 1 1 1 1 1 1 1 1 1 1 1 1 2 2 2 4 4
1 1 1 0 1 1 1 1 1 1 1 1 1 2 2 3 3 3 3 3 2 1 1 1 1 1 1 1 1 1 1 1 1 1 1 1 1 1 2 2 2 2 3
1 0 1 1 0 0 1 0 1 1 1 1 1 2 3 2 2 2 2 2 1 1 1 1 1 1 1 1 0 0 0 0 1 1 1 1 1 1 1 1 2 2 3
0 0 0 0 0 0 0 0 0 0 0 0 1 1 2 2 1 1 1 2 1 1 1 0 0 0 0 0 0 0 1 1 1 1 1 1 1 1 1 2 2 2 3
0 1 1 0 0 1 0 0 0 0 0 0 0 1 1 1 1 1 1 1 1 2 2 1 0 1 1 1 1 1 1 2 2 2 1 1 1 1 1 2 2 3 3
0 1 1 1 0 1 1 0 0 1 1 0 0 0 0 0 1 1 1 1 1 2 2 2 1 1 1 1 1 2 2 2 2 2 2 2 2 2 2 2 2 3 3
1 1 1 1 1 1 0 0 0 0 1 1 1 0 0 0 1 1 1 1 1 1 2 2 2 2 2 2 2 3 3 3 2 2 2 1 2 2 2 2 2 2 3
0 1 1 1 1 0 0 0 0 0 0 1 0 0 0 0 0 1 1 1 1 1 2 2 3 3 3 3 3 4 3 3 3 2 1 1 1 2 2 2 2 2 2
Wind_Direction
97 174 158 183 191 173 199 259 274 269 244 221 223 219 212 226 251 242 259 271 264 283 286 273 280 277 269 269 261 257 258 258 282 304 311 319 326 322 329 339 339 339 341
5 96 160 148 124 126 265 284 288 274 250 232 216 218 227 229 233 231 253 269 263 270 278 280 283 288 287 283 269 267 268 265 269 297 314 325 320 319 322 332 341 346 345
27 41 71 96 131 246 271 286 287 275 268 254 212 217 244 243 235 238 235 249 257 261 264 264 274 273 290 303 294 275 278 290 282 285 305 318 322 327 335 336 337 337 344
37 48 21 304 246 254 268 278 267 253 256 253 250 239 241 242 235 239 226 231 256 260 258 252 260 258 265 273 280 272 281 311 314 302 309 322 326 327 334 337 339 341 338
37 21 306 318 304 294 308 299 285 278 288 270 253 274 267 245 241 242 216 221 237 260 283 271 263 290 306 311 309 301 327 320 320 320 317 327 331 337 334 327 329 328 330
331 302 319 332 342 333 305 326 341 312 312 326 258 250 266 269 279 262 171 202 228 243 284 304 305 297 311 325 336 353 355 324 303 306 308 320 317 321 326 332 332 338 331
339 324 325 320 324 334 356 24 329 290 283 306 292 264 265 270 273 263 190 168 193 250 263 308 341 329 337 338 0 13 7 4 354 317 303 303 300 304 317 329 331 332 318
351 337 326 325 330 350 18 355 310 297 258 261 290 290 276 279 272 262 123 102 75 301 275 268 312 325 332 25 47 30 14 9 360 356 336 313 319 321 304 304 311 322 310
340 323 311 305 303 311 302 290 293 293 274 263 265 305 299 301 302 307 89 160 27 345 351 2 338 320 354 47 70 52 32 21 26 37 35 33 27 22 22 21 0 356 343
311 312 312 298 269 266 272 279 288 272 263 273 310 309 299 300 330 26 85 135 66 9 13 358 357 15 19 45 78 83 52 18 22 26 29 28 29 27 27 29 7 0 353
317 327 340 331 299 278 296 301 288 311 39 33 19 359 334 321 337 34 78 103 135 73 27 357 350 19 40 48 57 69 62 65 53 47 38 28 25 24 23 23 21 21 11
330 346 355 356 347 356 23 4 24 79 77 38 31 18 2 341 350 9 60 80 90 113 87 6 28 45 55 60 67 59 65 66 65 56 47 31 21 14 7 11 16 22 20
1 6 7 6 9 17 51 53 42 56 70 36 33 17 357 354 354 20 54 75 80 93 89 69 63 63 66 67 64 66 68 64 65 59 41 18 1 349 360 4 8 11 9
11 4 14 24 22 24 25 39 57 56 57 39 32 358 343 359 9 18 40 69 76 80 77 68 67 69 70 61 60 62 54 58 66 62 32 11 8 13 14 5 360 356 3
13 12 14 28 29 29 29 28 34 16 68 184 234 230 263 336 353 42 78 81 97 97 89 72 58 59 54 48 49 51 46 44 48 44 40 27 18 17 4 356 1 10 14
23 18 19 31 29 33 34 30 34 38 39 37 38 56 34 34 53 78 90 87 89 96 89 83 72 67 65 54 47 38 37 38 38 41 37 27 16 6 358 355 2 12 3
352 344 30 38 34 28 25 37 21 18 31 35 39 45 47 49 67 81 88 90 91 95 82 84 83 79 65 57 47 49 36 21 31 41 34 21 9 358 359 1 1 360 353
5 30 58 53 16 15 7 15 38 38 13 5 14 32 42 49 62 70 80 86 78 75 65 74 76 72 68 61 48 39 40 40 35 28 22 18 10 0 357 355 353 350 341
3 345 42 51 24 22 34 47 51 46 45 21 13 16 27 43 61 69 78 72 86 74 58 59 60 63 69 61 48 43 51 48 25 17 9 6 358 353 348 342 340 343 345
1 17 37 63 61 46 39 55 63 58 55 43 22 8 9 37 49 51 53 59 70 66 64 58 48 48 56 57 52 43 44 33 16 9 346 341 341 338 334 331 331 329 327
6 27 45 45 62 78 74 81 106 85 58 48 14 9 36 58 61 49 48 50 57 58 50 46 43 42 45 50 71 41 5 334 324 318 316 320 325 325 314 310 313 315 319
57 67 65 82 110 116 105 84 108 112 38 31 19 12 32 44 47 49 42 29 22 27 39 88 69 16 335 256 226 221 262 289 302 303 300 301 307 306 307 313 321 324 319
78 99 86 63 90 137 79 75 103 139 197 264 24 30 20 22 28 34 31 20 18 14 11 20 35 15 14 357 308 245 235 249 260 263 269 280 291 298 303 305 313 316 318
141 143 140 143 106 107 113 127 170 182 190 195 172 18 360 348 6 20 22 19 14 6 6 4 358 344 346 348 318 300 281 276 270 265 265 256 261 277 283 287 292 297 301
161 147 145 147 141 136 132 113 114 191 202 209 206 222 307 336 348 354 5 7 355 347 341 345 348 348 339 328 320 310 299 294 288 286 272 253 250 258 263 269 280 290 298
134 128 132 139 144 154 166 178 213 280 234 228 205 190 196 259 313 329 342 355 343 329 326 333 333 332 329 321 315 312 302 293 288 286 273 267 254 263 269 268 278 289 299
Height
1465 1466 1468 1469 1470 1471 1472 1472 1473 1474 1474 1474 1474 1474 1474 1474 1474 1474 1473 1473 1472 1472 1472 1471 1470 1470 1469 1469 1468 1467 1466 1465 1462 1459 1458 1456 1454 1452 1449 1448 1446 1443 1441
1463 1464 1465 1466 1467 1468 1469 1469 1470 1470 1471 1471 1471 1471 1471 1471 1471 1471 1470 1470 1470 1469 1468 1468 1467 1467 1466 1466 1465 1464 1463 1463 1461 1458 1456 1454 1452 1450 1447 1445 1443 1441 1439
1462 1462 1463 1464 1465 1466 1466 1467 1467 1468 1468 1468 1468 1468 1468 1469 1468 1468 1468 1467 1467 1466 1466 1465 1464 1464 1463 1463 1462 1461 1461 1460 1459 1456 1454 1452 1450 1448 1446 1443 1441 1439 1437
1460 1461 1462 1462 1463 1463 1464 1464 1464 1465 1465 1465 1465 1466 1466 1466 1466 1466 1465 1465 1464 1464 1463 1463 1462 1461 1461 1461 1460 1459 1458 1457 1456 1454 1452 1450 1448 1446 1444 1441 1438 1437 1434
1459 1459 1460 1460 1461 1461 1462 1462 1462 1462 1462 1462 1463 1463 1463 1463 1463 1463 1463 1462 1462 1461 1461 1460 1460 1459 1459 1459 1458 1457 1456 1455 1454 1452 1451 1449 1447 1445 1443 1440 1438 1435 1432
1457 1458 1458 1458 1459 1459 1459 1459 1459 1460 1460 1460 1460 1460 1460 1460 1461 1461 1461 1460 1459 1459 1458 1458 1457 1457 1457 1457 1456 1455 1454 1453 1452 1451 1449 1448 1446 1444 1442 1440 1437 1434 1430
1455 1456 1456 1456 1457 1457 1457 1457 1457 1457 1457 1457 1457 1457 1457 1458 1458 1459 1459 1458 1457 1457 1456 1456 1455 1455 1455 1454 1454 1453 1452 1451 1451 1450 1448 1447 1445 1444 1442 1439 1437 1434 1431
1453 1454 1454 1454 1455 1455 1455 1455 1455 1455 1455 1455 1455 1455 1455 1455 1456 1456 1456 1456 1455 1455 1454 1454 1453 1453 1452 1452 1452 1451 1450 1449 1449 1448 1447 1446 1445 1443 1441 1439 1437 1434 1431
1452 1452 1452 1452 1452 1453 1453 1453 1453 1453 1452 1452 1452 1452 1452 1453 1453 1454 1454 1454 1453 1453 1453 1452 1452 1451 1451 1451 1450 1449 1449 1448 1448 1447 1446 1445 1444 1442 1440 1438 1435 1433 1430
1450 1450 1450 1450 1450 1451 1451 1451 1451 1451 1450 1450 1450 1450 1450 1451 1451 1452 1452 1452 1451 1451 1451 1451 1450 1450 1450 1450 1449 1448 1447 1447 1446 1445 1445 1444 1442 1441 1439 1437 1435 1433 1430
1448 1448 1448 1448 1448 1449 1449 1449 1449 1449 1449 1448 1448 1448 1449 1449 1449 1450 1450 1450 1450 1449 1449 1449 1449 1449 1449 1448 1448 1448 1447 1447 1446 1445 1444 1443 1442 1440 1439 1437 1435 1433 1431
1446 1446 1446 1446 1446 1447 1447 1447 1447 1447 1447 1447 1446 1446 1447 1447 1447 1448 1448 1448 1448 1448 1448 1448 1448 1448 1448 1447 1447 1447 1447 1446 1445 1444 1443 1442 1441 1440 1438 1437 1435 1434 1432
1444 1444 1444 1444 1445 1445 1445 1445 1445 1445 1445 1445 1445 1445 1445 1445 1446 1446 1446 1446 1446 1446 1446 1447 1447 1447 1446 1446 1446 1446 1446 1445 1444 1443 1442 1442 1441 1440 1438 1437 1435 1434 1432
1442 1442 1442 1442 1443 1443 1443 1443 1443 1443 1443 1443 1443 1443 1444 1444 1444 1444 1444 1444 1444 1444 1445 1445 1445 1446 1445 1445 1445 1445 1444 1444 1443 1443 1442 1441 1441 1439 1438 1436 1434 1433 1431
1440 1440 1440 1440 1441 1441 1441 1442 1442 1442 1442 1442 1442 1442 1442 1442 1443 1443 1443 1443 1443 1443 1443 1443 1444 1444 1444 1444 1444 1444 1444 1443 1443 1442 1442 1441 1440 1438 1437 1436 1434 1432 1429
1438 1438 1438 1439 1439 1439 1439 1439 1440 1440 1440 1441 1441 1441 1441 1441 1442 1441 1442 1442 1442 1442 1442 1442 1442 1442 1442 1443 1443 1442 1443 1442 1442 1441 1441 1440 1439 1438 1437 1435 1433 1431 1429
1436 1436 1436 1437 1437 1437 1438 1438 1438 1439 1439 1439 1439 1439 1439 1439 1440 1440 1440 1440 1441 1441 1441 1441 1441 1441 1441 1442 1442 1442 1442 1442 1441 1441 1440 1440 1439 1437 1436 1434 1433 1431 1429
1435 1435 1435 1435 1436 1436 1436 1436 1437 1437 1437 1437 1437 1438 1438 1438 1438 1438 1439 1439 1439 1439 1439 1440 1440 1440 1441 1441 1441 1441 1441 1441 1440 1440 1439 1439 1438 1436 1435 1434 1432 1430 1428
1433 1433 1433 1434 1434 1434 1435 1435 1435 1435 1436 1436 1436 1437 1437 1437 1437 1437 1437 1437 1437 1438 1438 1439 1439 1439 1440 1440 1440 1440 1440 1440 1439 1439 1438 1437 1436 1435 1434 1433 1431 1430 1428
1431 1431 1432 1432 1432 1433 1433 1433 1433 1434 1434 1435 1435 1435 1436 1436 1436 1436 1436 1436 1437 1437 1438 1438 1438 1439 1439 1439 1439 1439 1438 1438 1438 1438 1437 1436 1435 1434 1433 1432 1430 1429 1427
1428 1429 1430 1430 1431 1431 1431 1432 1432 1433 1433 1433 1434 1434 1435 1435 1435 1435 1435 1436 1436 1436 1436 1437 1437 1437 1438 1437 1437 1437 1437 1437 1436 1436 1435 1435 1434 1433 1432 1431 1429 1428 1426
1427 1427 1428 1428 1429 1429 1430 1430 1431 1431 1432 1432 1433 1433 1434 1434 1434 1434 1434 1435 1435 1435 1436 1436 1436 1436 1436 1436 1436 1435 1435 1435 1435 1434 1433 1433 1432 1431 1430 1429 1428 1427 1425
1425 1426 1426 1426 1427 1427 1428 1428 1429 1429 1430 1431 1431 1432 1432 1432 1432 1433 1433 1433 1434 1434 1434 1435 1435 1435 1435 1435 1434 1434 1433 1433 1433 1432 1432 1431 1430 1429 1428 1428 1426 1425 1424
1423 1424 1424 1424 1425 1425 1426 1426 1427 1427 1428 1429 1429 1430 1430 1431 1431 1431 1432 1432 1432 1433 1433 1433 1433 1433 1433 1433 1432 1432 1432 1431 1431 1430 1430 1429 1428 1427 1427 1426 1425 1424 1423
1422 1422 1422 1423 1423 1423 1424 1424 1425 1425 1426 1427 1427 1428 1429 1429 1430 1430 1430 1430 1431 1431 1431 1431 1431 1431 1431 1430 1430 1430 1430 1429 1429 1428 1427 1427 1426 1426 1425 1424 1424 1423 1421
1420 1420 1421 1421 1421 1422 1422 1422 1423 1423 1424 1424 1425 1426 1427 1427 1428 1428 1428 1429 1429 1429 1429 1429 1429 1429 1429 1428 1428 1428 1427 1427 1426 1426 1425 1425 1424 1424 1423 1423 1422 1421 1420